EW4750 Weather Reports


time (UTC)temp
F
wind
direction
speed
knots
gust
knots
rain 1hr
in
rain 24hr
in
rain mn
in
humidity
%
barometer
mb
20260505073039 62 360 3.5 6.1 0.00 0.00 0.00 57 1006.3
20260505071526 61 360 4.3 7.0 0.00 0.00 0.00 57 1006.2
20260505070024 63 360 4.3 7.8 0.00 0.00 0.00 55 1006.1
20260505064522 65 360 3.5 9.6 0.00 0.00 0.00 51 1006.0
20260505063022 65 360 4.3 7.8 0.00 0.00 0.00 50 1005.9
20260505061522 65 360 2.6 7.0 0.00 0.00 0.00 49 1005.9
20260505060025 65 360 4.3 7.0 0.00 0.00 0.00 49 1005.9
20260505054523 66 360 4.3 8.7 0.00 0.00 0.00 48 1005.8
20260505053021 66 360 3.5 7.0 0.00 0.00 0.00 49 1005.8
20260505051523 66 360 3.5 6.1 0.00 0.00 0.00 48 1005.7
20260505041535 69 360 4.3 7.0 0.00 0.00 0.00 45 1005.1
20260505040016 70 360 3.5 9.6 0.00 0.00 0.00 44 1004.9
20260505034515 70 360 3.5 10.4 0.00 0.00 0.00 43 1004.5
20260505033015 71 360 4.3 9.6 0.00 0.00 0.00 42 1004.3
20260505031517 72 360 6.1 10.4 0.00 0.00 0.00 41 1004.1
20260505030014 73 360 4.3 12.2 0.00 0.00 0.00 41 1003.9
20260505024513 74 227 6.1 12.2 0.00 0.00 0.00 40 1003.7
20260505023012 75 266 5.2 10.4 0.00 0.00 0.00 39 1003.6
20260505021511 76 254 6.1 13.0 0.00 0.00 0.00 38 1003.6
20260505020016 78 249 7.0 15.6 0.00 0.00 0.00 36 1003.5
20260505014511 79 213 7.8 13.9 0.00 0.00 0.00 34 1003.5
20260505013013 79 221 7.8 15.6 0.00 0.00 0.00 33 1003.6
20260505011511 80 231 6.1 16.5 0.00 0.00 0.00 33 1003.5
20260505010009 80 215 7.8 15.6 0.00 0.00 0.00 31 1003.5
20260505004507 81 204 7.0 15.6 0.00 0.00 0.00 32 1003.6
20260505003006 81 215 8.7 16.5 0.00 0.00 0.00 31 1003.6
20260505001505 82 215 8.7 13.9 0.00 0.00 0.00 31 1003.6
20260505000003 82 265 7.0 17.4 0.00 0.00 0.00 29 1003.6
20260504234502 82 254 7.8 20.0 0.00 0.00 0.00 30 1003.5
20260504233109 83 271 5.2 13.9 0.00 0.00 0.00 31 1003.5
20260504231600 84 266 7.0 13.0 0.00 0.00 0.00 30 1003.5
20260504230059 84 273 4.3 10.4 0.00 0.00 0.00 30 1003.6
20260504224609 85 289 1.7 7.0 0.00 0.00 0.00 30 1003.8
20260504223053 84 212 4.3 9.6 0.00 0.00 0.00 30 1004.1
20260504221550 83 267 0.9 6.1 0.00 0.00 0.00 28 1004.1
20260504220049 83 230 1.7 6.1 0.00 0.00 0.00 28 1004.3
20260504214546 83 265 2.6 6.1 0.00 0.00 0.00 27 1004.6
20260504213101 83 108 1.7 5.2 0.00 0.00 0.00 29 1004.8
20260504211541 82 106 1.7 7.0 0.00 0.00 0.00 28 1005.0
20260504210037 81 98 3.5 7.0 0.00 0.00 0.00 31 1005.2
20260504204534 81 78 2.6 7.0 0.00 0.00 0.00 28 1005.4
20260504203034 80 109 2.6 6.1 0.00 0.00 0.00 32 1005.5
20260504201533 80 88 4.3 7.8 0.00 0.00 0.00 33 1005.7
20260504200025 79 194 1.7 7.0 0.00 0.00 0.00 37 1005.8
20260504194522 77 121 1.7 5.2 0.00 0.00 0.00 45 1006.0
20260504193019 77 82 1.7 6.1 0.00 0.00 0.00 46 1006.2
20260504191515 76 76 1.7 6.1 0.00 0.00 0.00 48 1006.3
20260504190011 74 87 2.6 7.0 0.00 0.00 0.00 48 1006.5
20260504184513 74 139 2.6 7.0 0.00 0.00 0.00 49 1006.8
20260504183007 74 27 4.3 6.1 0.00 0.00 0.00 49 1006.8
20260504181504 73 59 3.5 5.2 0.00 0.00 0.00 47 1006.9
20260504180100 72 45 2.6 6.1 0.00 0.00 0.00 49 1006.9
20260504174612 71 139 0.9 5.2 0.00 0.00 0.00 49 1007.0
20260504173057 70 68 2.6 4.3 0.00 0.00 0.00 52 1007.2
20260504171550 69 355 1.7 4.3 0.00 0.00 0.00 53 1007.2
20260504110111 54 360 4.3 8.7 0.00 0.00 0.00 64 1007.5
20260504081528 58 244 1.7 7.8 0.00 0.00 0.00 55 1007.2